Location: Unspecified
(0.0000°N, 0.0000°E)
Time: 19:35:53
(UTC+02:00)

Cosmos 1300 - Visible Passes

Search period start: 19 April 2014 00:00
Search period end: 29 April 2014 00:00
Orbit: 533 x 535 km, 82.5° (Epoch: 19 April)

Date Brightness Start Highest point End Pass type
(mag) Time Alt. Az. Time Alt. Az. Time Alt. Az.
19 Apr 4.6 21:13:21 10° SSW 21:16:54 33° W 21:20:26 10° NNW visible
20 Apr 4.5 21:04:00 10° SSW 21:07:36 35° W 21:11:10 10° NNW visible
21 Apr 4.4 20:54:38 10° SSW 20:58:16 37° W 21:01:54 10° NNW visible
22 Apr 4.3 20:45:16 10° SSW 20:48:56 39° W 20:52:36 10° NNW visible
23 Apr 4.2 20:35:53 10° SSW 20:39:35 41° W 20:43:17 10° NNW visible
24 Apr 4.1 20:26:29 10° SSW 20:30:14 44° W 20:33:57 10° NNW visible
25 Apr 4.0 20:17:05 10° SSW 20:20:51 47° W 20:24:36 10° NNW visible
